Weather History for KMKL - January, 2012

Change the Weather History Date:

Friday, January 20, 2012

  Actual Average Record
Temperature  
Mean Temperature 52 °F 38 °F  
Max Temperature 63 °F 48 °F 70 °F (1951)
Min Temperature 40 °F 28 °F -10 °F (1985)
Degree Days  
Heating Degree Days 13 27  
Month to date heating degree days 421 540  
Since 1 July heating degree days 1701 1958  
Cooling Degree Days 0 0  
Month to date cooling degree days 0 0  
Year to date cooling degree days 0 0  
Growing Degree Days 2 (Base 50)    
Moisture  
Dew Point 47 °F    
Average Humidity 79    
Maximum Humidity 97    
Minimum Humidity 60    
Precipitation  
Precipitation 0.00 in 0.14 in 3.17 in (1954)
Month to date precipitation 0.93 2.56  
Year to date precipitation 0.93 2.56  
Snow  
Snow 0.00 in 0.10 in 2.50 in (1983)
Month to date snowfall T 1.5  
Since 1 July snowfall 3.3 1.8  
Snow Depth 0.00 in    
Sea Level Pressure  
Sea Level Pressure 29.86 in    
Wind  
Wind Speed 6 mph (ESE)    
Max Wind Speed 16 mph    
Max Gust Speed 20 mph    
Visibility 10 miles    
Events      
T = Trace of Precipitation, MM = Missing Value Source: NWS Daily Summary

Daily Weather History Graph

Daily Weather History Graph

Search for Another Location

Airport or City:

Trip Planner

Search our weather history database for the weather conditions in past years. The results will help you decide how hot, cold, wet, or windy it might be!

Date:

Astronomy

Jan. 20, 2012 Rise Set
Actual Time 7:03 AM CST 5:10 PM CST
Civil Twilight 6:35 AM CST 5:38 PM CST
Nautical Twilight 6:04 AM CST 6:09 PM CST
Astronomical Twilight 5:33 AM CST 6:39 PM CST
Moon 4:37 AM CST (1/20) 2:44 PM CST (1/20)
Length of Visible Light 11h 02m
Length of Day
10h 07m
Waning Crescent, 8% of the Moon is Illuminated
Jan 20
Waning Crescent
Jan 23
New
Jan 30
First Quarter
Feb 7
Full
Feb 14
Last Quarter

Hourly Weather History & Observations

Time (CST) Temp. Windchill Dew Point Humidity Pressure Visibility Wind Dir Wind Speed Gust Speed Precip Events Conditions
12:53 AM 48.9 °F - 39.9 °F 71% 29.99 in 10.0 mi Calm Calm - N/A   Overcast
1:53 AM 48.9 °F - 41.0 °F 74% 29.97 in 10.0 mi Calm Calm - N/A   Overcast
2:43 AM 48.2 °F - 41.0 °F 76% 29.97 in 10.0 mi Calm Calm - N/A   Overcast
2:53 AM 48.0 °F - 41.0 °F 77% 29.97 in 10.0 mi Calm Calm - N/A   Overcast
3:53 AM 48.0 °F - 37.0 °F 66% 29.96 in 10.0 mi ENE 8.1 mph - N/A   Overcast
4:53 AM 46.0 °F 42.5 °F 34.0 °F 63% 29.96 in 10.0 mi NNE 6.9 mph - N/A   Overcast
5:53 AM 44.1 °F 40.1 °F 32.0 °F 63% 29.98 in 10.0 mi NE 6.9 mph - N/A   Overcast
6:27 AM 41.0 °F 38.0 °F 32.0 °F 70% 29.97 in 10.0 mi East 4.6 mph - N/A   Scattered Clouds
6:53 AM 42.1 °F 39.2 °F 33.1 °F 70% 29.96 in 10.0 mi ENE 4.6 mph - N/A   Mostly Cloudy
7:53 AM 44.1 °F 40.8 °F 33.1 °F 65% 29.97 in 10.0 mi ENE 5.8 mph - N/A   Overcast
8:53 AM 45.0 °F 41.8 °F 34.0 °F 65% 29.98 in 10.0 mi NE 5.8 mph - N/A   Overcast
9:07 AM 44.6 °F 40.7 °F 33.8 °F 66% 29.98 in 10.0 mi ENE 6.9 mph - N/A   Overcast
9:53 AM 45.0 °F 42.6 °F 34.0 °F 65% 29.98 in 10.0 mi ENE 4.6 mph - N/A   Overcast
10:53 AM 48.0 °F - 37.0 °F 66% 29.94 in 10.0 mi East 9.2 mph - N/A   Overcast
11:53 AM 50.0 °F - 37.9 °F 63% 29.90 in 10.0 mi East 6.9 mph - N/A   Overcast
12:03 PM 51.8 °F - 39.2 °F 62% 29.90 in 10.0 mi East 4.6 mph - N/A   Overcast
12:23 PM 51.8 °F - 39.2 °F 62% 29.89 in 10.0 mi East 3.5 mph - N/A   Overcast
12:53 PM 53.1 °F - 41.0 °F 64% 29.87 in 10.0 mi East 5.8 mph - N/A   Overcast
1:31 PM 55.4 °F - 42.8 °F 63% 29.85 in 10.0 mi Variable 4.6 mph - N/A   Overcast
1:50 PM 55.4 °F - 42.8 °F 63% 29.84 in 10.0 mi SE 3.5 mph - N/A   Overcast
1:53 PM 55.9 °F - 42.1 °F 60% 29.83 in 10.0 mi SE 6.9 mph - N/A   Overcast
2:02 PM 55.4 °F - 42.8 °F 63% 29.83 in 10.0 mi SE 4.6 mph - N/A   Overcast
2:44 PM 57.2 °F - 44.6 °F 63% 29.82 in 10.0 mi SE 5.8 mph - N/A   Overcast
2:53 PM 59.0 °F - 46.0 °F 62% 29.81 in 10.0 mi SE 4.6 mph - N/A   Overcast
3:24 PM 60.8 °F - 48.2 °F 63% 29.81 in 10.0 mi Calm Calm - N/A   Overcast
3:51 PM 60.8 °F - 51.8 °F 72% 29.79 in 10.0 mi SE 5.8 mph - N/A   Scattered Clouds
3:53 PM 61.0 °F - 51.1 °F 70% 29.79 in 10.0 mi SE 4.6 mph - N/A   Partly Cloudy
4:24 PM 62.6 °F - 53.6 °F 72% 29.79 in 10.0 mi South 5.8 mph - N/A   Mostly Cloudy
4:53 PM 62.1 °F - 54.0 °F 75% 29.79 in 10.0 mi Variable 3.5 mph - N/A   Overcast
5:50 PM 59.0 °F - 53.6 °F 82% 29.78 in 10.0 mi Calm Calm - N/A   Overcast
5:53 PM 59.0 °F - 54.0 °F 83% 29.78 in 10.0 mi Calm Calm - N/A   Overcast
6:51 PM 60.8 °F - 55.4 °F 82% 29.78 in 10.0 mi Calm Calm - N/A   Overcast
6:53 PM 60.1 °F - 55.0 °F 83% 29.78 in 10.0 mi Variable 3.5 mph - N/A   Overcast
7:27 PM 62.6 °F - 57.2 °F 82% 29.77 in 10.0 mi South 6.9 mph - N/A   Overcast
7:53 PM 61.0 °F - 57.9 °F 90% 29.78 in 10.0 mi South 4.6 mph - N/A   Scattered Clouds
8:12 PM 62.6 °F - 59.0 °F 88% 29.79 in 10.0 mi South 3.5 mph - N/A   Mostly Cloudy
8:40 PM 62.6 °F - 59.0 °F 88% 29.78 in 10.0 mi South 6.9 mph - N/A   Mostly Cloudy
8:53 PM 62.1 °F - 59.0 °F 90% 29.78 in 10.0 mi South 6.9 mph - N/A   Mostly Cloudy
9:48 PM 62.6 °F - 59.0 °F 88% 29.78 in 10.0 mi Variable 4.6 mph - N/A   Overcast
9:53 PM 62.1 °F - 59.0 °F 90% 29.79 in 10.0 mi Variable 4.6 mph - N/A   Overcast
10:05 PM 62.6 °F - 59.0 °F 88% 29.79 in 10.0 mi SW 4.6 mph - N/A   Overcast
10:11 PM 62.6 °F - 59.0 °F 88% 29.79 in 10.0 mi SW 6.9 mph - N/A   Mostly Cloudy
10:53 PM 61.0 °F - 59.0 °F 93% 29.77 in 10.0 mi SSW 10.4 mph - N/A   Partly Cloudy
11:27 PM 62.6 °F - 59.0 °F 88% 29.80 in 10.0 mi West 9.2 mph - N/A   Mostly Cloudy
11:38 PM 60.8 °F - 57.2 °F 88% 29.80 in 10.0 mi WNW 8.1 mph - N/A   Overcast
11:53 PM 54.0 °F - 50.0 °F 86% 29.81 in 10.0 mi NNW 11.5 mph - N/A   Overcast